Terminal Aerodrome Forecast
Issued by NWS Indianapolis, IN

Home | Current Version | Previous Version | Text Only | Print | Product List | Glossary On
Versions: 1 2 3 4 5 6 7 8 9 10 11 12 13 14 15 16 17 18 19 20 21 22 23 24
000
FTUS43 KIND 270520
TAFIND
TAF
KIND 270520Z 2706/2812 12005KT P6SM FEW150 BKN180
     FM270800 19010KT P6SM VCSH SCT045 BKN060
     FM271200 20012G20KT P6SM VCSH OVC015
     FM271400 23014KT P6SM VCSH BKN015
     FM272100 24014KT P6SM BKN035=

USA.gov is the U.S. government's official web portal to all federal, state and local government web resources and services.